GMT,Max TemperatureF,Mean TemperatureF,Min TemperatureF,Max Dew PointF,MeanDew PointF,Min DewpointF,Max Humidity, Mean Humidity, Min Humidity, Max Sea Level PressureIn, Mean Sea Level PressureIn, Min Sea Level PressureIn, Max VisibilityMiles, Mean VisibilityMiles, Min VisibilityMiles, Max Wind SpeedMPH, Mean Wind SpeedMPH, Max Gust SpeedMPH,PrecipitationIn, CloudCover, Events, WindDirDegrees
2012-10-1,59,55,51,57,54,50,100,92,80,29.94,29.86,29.80,12,6,3,15,12,,0.24,7,Rain,218
2012-10-2,62,55,48,54,51,48,100,84,60,29.87,29.79,29.68,19,7,6,20,12,,0.01,6,Rain,207
2012-10-3,60,52,44,52,46,41,100,77,43,29.68,29.66,29.62,6,6,5,20,13,,0.24,5,Rain-Thunderstorm,233
2012-10-4,59,48,38,46,44,39,100,82,49,29.83,29.73,29.62,19,7,4,16,9,,0.00,4,Fog,234
2012-10-5,56,52,46,55,48,45,100,85,57,29.84,29.71,29.44,14,6,2,20,11,,0.03,7,Rain,243
2012-10-6,57,50,44,46,44,41,100,81,46,30.02,29.89,29.77,16,6,4,12,6,,0.00,4,Rain,319
2012-10-7,53,46,39,49,45,40,100,94,77,30.23,30.15,30.04,7,4,0,8,4,,0.01,5,Fog,337
2012-10-8,59,52,46,50,47,45,100,83,61,30.19,30.00,29.89,19,7,1,15,6,,0.00,6,Fog-Rain,115
2012-10-9,55,48,41,46,41,37,100,75,42,30.06,30.02,29.92,7,6,3,13,6,,0.00,3,Fog,38
2012-10-10,57,48,38,43,40,37,93,73,43,30.05,29.99,29.92,19,7,6,8,5,,0.00,4,,91
2012-10-11,57,51,45,57,49,41,100,87,76,29.91,29.68,29.47,19,6,1,16,9,,0.02,8,Rain,130
2012-10-12,55,48,41,57,46,39,100,83,56,29.79,29.64,29.47,9,6,5,21,14,,0.02,6,Rain,248
2012-10-13,53,46,39,45,42,39,100,90,69,29.77,29.64,29.59,17,7,5,9,6,,0.01,3,Rain,245
2012-10-14,53,44,35,45,41,34,100,91,69,29.60,29.55,29.50,13,6,3,15,9,,0.08,5,Rain,301
2012-10-15,54,44,33,48,42,34,100,90,74,29.63,29.58,29.53,19,8,5,17,9,,0.02,6,Rain,223
2012-10-16,57,52,46,52,43,36,100,75,35,29.69,29.52,29.33,19,7,5,29,15,40,0.00,5,Rain,222
2012-10-17,61,52,44,54,48,42,100,82,49,29.65,29.50,29.39,19,8,3,18,12,,0.02,6,Rain,174
2012-10-18,59,56,53,54,52,50,94,88,71,29.71,29.60,29.50,19,7,6,12,9,,0.00,7,Rain,179
2012-10-19,59,55,51,57,53,51,100,95,84,29.80,29.76,29.71,16,6,1,9,6,,0.28,8,Rain,143
2012-10-20,55,52,48,52,50,48,100,95,75,30.11,29.99,29.80,19,5,0,14,7,,0.24,6,Fog-Rain,238
2012-10-21,53,50,48,54,50,47,100,97,90,30.12,30.07,30.04,14,6,1,15,9,,0.04,7,Rain,44
2012-10-22,58,55,52,58,56,54,100,99,94,30.22,30.13,30.06,1,0,0,9,7,,0.00,8,Fog,53
2012-10-23,57,54,52,57,55,53,100,99,94,30.25,30.22,30.18,1,0,0,10,8,,0.00,8,Fog,13
2012-10-24,59,57,55,56,55,54,100,96,85,30.21,30.13,30.09,6,2,0,16,10,,0.01,8,Fog-Rain,58
2012-10-25,53,50,48,54,48,41,100,85,70,30.10,30.05,30.01,19,6,1,16,12,,0.00,8,Rain,48
2012-10-26,47,42,35,43,37,34,93,77,55,30.04,29.91,29.83,19,7,6,18,13,,0.04,6,Rain,26
2012-10-27,44,38,33,39,34,30,100,87,67,30.11,29.96,29.83,18,7,4,18,13,,0.31,4,Rain,340
2012-10-28,45,38,30,45,38,30,100,92,82,30.12,29.94,29.83,19,8,6,12,9,,0.02,6,Rain,235
2012-10-29,51,46,41,46,43,41,100,92,78,29.81,29.75,29.71,12,6,2,13,9,,0.00,6,Fog-Rain,253
2012-10-30,49,43,37,43,39,34,100,86,65,29.71,29.61,29.47,19,6,0,13,7,,0.01,5,Fog-Rain,254
2012-10-31,52,46,41,45,41,37,87,75,54,29.42,29.20,28.94,19,8,6,18,13,29,0.00,6,Rain,186